Theta_e
340 339 340 342 345 348 350 351 351 350 350 350 350 350 349 350 350 351 351 351 351 352 351 351 350 350 350 350 350 349 348 348 348 348 347 347 347 346 345 344 344 343 342 341 342 343 344 344 344 345 345 345 345 344 344 345 346 347 347 347 347 346 347 346 345 345 344 344 344 345 344 344 344 345 346 344 344 342 340 340 341 340 341 343 347
339 342 341 345 346 349 350 350 351 351 351 351 350 350 349 349 350 351 351 351 351 350 350 350 350 350 350 350 350 349 348 348 347 347 347 346 346 345 344 344 344 343 342 341 341 341 342 342 343 343 344 345 344 344 344 345 346 345 346 346 346 346 345 345 344 344 343 342 341 341 342 343 343 343 344 344 343 342 339 339 340 340 339 343 344
341 341 343 346 348 350 349 350 351 351 350 351 350 350 350 351 351 351 350 351 350 351 350 350 350 350 349 349 349 349 349 348 347 346 347 346 345 344 344 343 343 341 340 341 341 341 341 341 341 342 344 343 344 344 344 345 345 345 345 345 345 345 345 343 344 343 342 341 341 341 340 341 341 342 343 343 342 341 339 339 339 340 339 342 341
341 342 344 345 345 347 348 350 350 350 350 349 349 349 349 350 351 350 349 350 350 350 350 349 349 349 349 349 349 349 349 348 347 346 346 346 345 344 343 342 342 340 340 341 341 341 340 340 340 341 341 341 342 343 343 343 344 344 345 345 344 344 344 344 343 342 340 339 339 340 339 338 338 340 342 342 341 341 338 338 339 339 341 341 341
343 344 345 348 349 346 348 350 351 350 349 349 348 349 349 349 349 350 350 350 350 350 349 349 349 349 349 349 349 348 348 348 347 345 345 345 345 344 343 342 341 339 338 340 341 340 340 340 340 340 338 340 342 343 343 343 343 344 344 344 344 344 343 342 342 340 339 338 338 338 338 336 336 338 340 341 340 339 338 338 338 339 338 338 340
342 344 346 347 347 348 347 350 351 351 350 349 349 349 349 349 349 349 349 349 350 349 349 349 348 348 349 348 348 348 347 348 346 345 345 346 345 344 343 342 341 338 338 339 340 340 340 339 339 339 338 338 340 342 342 343 344 344 343 342 342 342 342 341 340 339 338 337 337 336 336 335 334 335 339 340 339 337 338 338 338 338 338 338 338
343 345 347 347 348 346 344 349 350 350 349 349 349 349 348 348 349 349 349 349 348 348 347 347 348 348 348 348 347 347 347 346 345 345 345 345 344 344 342 341 340 337 337 339 340 339 338 338 338 337 338 338 339 340 341 342 343 343 343 342 341 341 341 340 339 338 338 337 338 337 335 335 334 334 337 338 338 338 336 337 338 338 338 337 337
345 346 347 347 347 343 343 349 350 350 349 349 349 350 348 349 349 349 349 348 348 347 347 347 348 347 347 347 347 347 347 345 345 345 344 345 344 343 342 341 339 336 336 339 339 338 338 338 338 337 339 338 338 339 341 341 342 342 341 341 340 339 338 337 336 335 336 337 337 336 335 334 334 334 337 337 337 338 336 337 337 337 337 337 335
345 347 347 348 347 340 343 344 350 350 350 349 349 349 349 349 349 348 348 348 347 347 347 346 346 346 347 347 347 346 346 345 345 344 344 344 343 342 341 340 337 335 336 339 339 338 338 337 338 337 339 341 341 341 341 341 341 341 340 340 338 338 336 335 333 333 335 336 337 334 333 334 334 333 336 337 336 336 336 334 334 336 335 334 334
346 347 347 346 345 338 343 343 349 349 350 349 350 349 349 348 348 348 348 348 347 347 346 346 346 346 346 346 346 346 345 345 345 343 344 343 342 341 341 340 336 334 336 339 338 338 337 337 337 337 338 340 340 340 340 341 340 340 340 339 338 337 334 333 331 331 334 335 336 333 334 335 334 333 335 337 336 335 334 333 334 334 333 333 333
346 345 346 346 343 338 344 346 348 347 349 349 349 348 348 348 348 348 348 348 348 347 346 346 346 345 345 346 346 346 345 345 344 344 343 343 341 340 340 339 335 334 336 338 338 338 338 337 337 336 337 338 338 338 339 339 339 338 337 337 336 334 333 331 330 332 333 334 335 335 334 335 332 333 336 336 336 334 334 333 334 334 333 334 333
346 347 345 345 342 338 340 344 346 347 349 349 348 348 348 347 349 347 347 347 347 347 347 346 345 346 345 345 346 346 345 344 344 343 343 342 340 339 339 337 334 334 337 338 338 337 337 337 336 336 336 336 336 336 335 334 333 334 334 334 333 331 329 328 329 330 332 333 333 335 334 331 331 332 335 335 336 334 332 332 332 333 334 333 333
344 347 348 346 341 336 339 341 341 346 347 348 348 348 348 348 347 347 347 347 347 348 347 346 345 345 345 345 345 345 345 344 344 343 343 342 339 339 338 336 333 333 336 337 337 337 337 337 337 336 335 334 334 331 329 328 328 329 332 332 331 328 326 325 326 327 329 331 332 334 335 332 331 334 335 335 335 334 333 332 333 333 333 333 333
342 346 346 347 343 337 337 338 339 344 347 347 347 348 348 349 348 347 346 347 346 346 347 346 346 345 345 345 345 345 344 344 343 343 342 341 340 339 338 335 332 333 334 335 335 335 336 336 335 335 333 333 330 327 325 323 324 327 328 329 327 325 322 321 323 325 326 328 330 333 336 330 331 334 334 335 335 337 336 334 332 332 333 332 332
338 338 345 344 343 342 337 335 338 341 343 346 345 347 347 348 348 348 347 346 346 345 347 346 345 345 344 344 345 345 344 344 343 342 341 341 340 339 338 335 332 333 333 332 332 331 332 334 335 334 332 330 327 323 321 322 324 324 324 323 321 320 318 319 321 323 324 326 329 333 336 331 333 334 335 337 337 338 337 336 334 335 334 332 332
330 332 335 334 336 340 340 337 335 334 339 340 339 341 345 347 348 348 348 346 346 345 346 346 345 345 344 344 345 345 345 344 342 341 341 340 340 339 337 336 333 333 333 332 331 330 330 333 333 331 329 326 324 321 321 323 323 322 322 320 319 317 316 317 320 322 323 325 327 332 332 331 333 334 335 335 336 336 337 337 337 335 334 336 336
325 326 328 328 329 334 337 341 337 331 331 331 332 334 337 345 346 347 346 346 346 346 344 345 345 345 345 344 344 344 343 343 342 341 341 340 340 337 336 335 335 334 334 333 331 330 330 330 329 327 325 324 322 322 322 323 322 321 320 319 318 317 315 316 319 321 322 325 328 330 328 329 331 332 333 334 334 335 335 337 337 337 336 336 336
322 322 322 324 325 328 328 331 339 339 339 331 329 331 336 342 343 343 344 344 345 345 345 345 344 344 344 343 342 342 343 342 342 341 340 339 339 337 336 335 334 333 333 331 330 328 328 327 324 324 324 323 322 323 322 322 321 319 318 317 316 316 316 316 320 321 323 325 327 329 327 329 330 330 331 332 332 332 333 334 336 335 335 335 335
320 320 319 320 320 325 327 326 330 337 340 338 337 333 332 336 338 340 341 342 343 342 342 341 340 342 341 339 337 335 335 336 338 339 338 337 336 334 336 335 334 332 331 330 328 325 325 325 324 324 323 322 322 322 321 321 319 318 317 315 313 313 314 317 320 322 324 325 327 326 326 329 329 331 330 330 330 331 331 332 333 333 333 333 333
318 319 319 318 319 321 324 324 325 327 334 339 340 339 332 331 334 335 337 339 340 339 337 335 333 334 334 332 329 330 329 332 329 336 333 336 334 334 334 334 334 332 331 331 329 325 323 323 323 323 323 322 322 321 320 319 317 316 315 314 312 312 315 318 320 321 323 325 327 325 327 328 329 329 330 330 330 330 330 329 331 332 332 332 331
317 317 317 316 317 318 319 322 321 322 328 334 338 339 338 329 330 329 330 333 334 334 334 326 324 324 326 324 327 337 336 336 337 338 327 337 326 328 332 335 335 333 331 330 330 325 323 322 322 322 320 318 317 317 317 317 316 314 313 312 311 314 315 317 319 320 323 325 327 327 329 329 328 329 329 329 329 329 329 328 328 328 329 331 331
315 316 315 315 316 316 318 319 320 321 324 328 335 339 337 333 339 338 337 331 327 326 332 336 331 334 323 332 337 336 337 336 335 332 334 331 330 326 330 334 335 334 333 330 329 326 324 324 323 322 320 317 313 312 311 312 312 312 311 310 312 314 315 316 317 318 321 325 328 329 330 330 330 333 333 332 332 330 330 330 329 328 328 327 329
315 315 315 313 314 315 316 317 318 320 322 327 330 334 337 338 339 338 336 329 331 333 334 334 335 334 336 337 335 337 338 336 334 332 332 324 330 326 330 332 333 332 333 330 328 326 325 325 323 320 318 315 313 312 311 310 309 309 309 311 311 312 312 313 313 315 316 319 322 325 328 330 331 332 332 332 332 331 331 331 330 330 329 328 327
312 312 312 313 314 315 315 315 317 318 320 324 325 331 337 338 339 338 336 335 336 335 335 335 334 335 337 337 336 336 336 334 326 324 326 332 330 324 325 326 328 326 326 328 327 325 324 323 321 318 316 314 313 311 310 310 309 310 310 309 308 308 308 309 310 311 314 316 319 323 324 326 328 330 331 332 332 331 330 330 330 330 329 328 328
308 308 310 312 313 313 314 316 316 318 320 322 324 329 336 337 338 338 335 335 335 335 335 334 334 335 335 335 335 333 332 332 331 331 331 331 333 334 333 333 332 328 322 324 323 321 320 319 318 316 316 314 312 311 310 309 308 307 306 305 304 304 304 305 306 308 310 313 316 319 322 324 327 329 331 330 330 330 329 329 329 329 329 329 329
305 310 311 311 312 312 313 314 316 317 320 321 322 327 332 337 337 337 335 335 335 335 334 333 333 333 334 334 333 332 331 331 330 330 329 330 330 332 332 332 331 328 327 325 323 321 320 319 317 316 315 314 313 312 310 308 306 304 302 302 301 300 299 300 301 303 306 308 311 316 318 321 324 326 327 329 330 329 329 329 329 329 329 329 329
306 309 308 309 310 311 313 314 317 318 320 322 324 329 333 336 337 336 335 334 335 334 334 333 333 332 333 333 333 331 330 330 329 329 328 329 329 330 330 330 329 327 327 325 322 322 321 319 318 316 315 314 313 312 310 308 306 304 302 301 300 298 298 297 297 298 300 303 306 311 315 318 321 323 325 326 326 327 327 327 328 329 327 328 327
303 306 307 309 310 311 312 313 317 318 321 324 328 331 332 332 332 331 332 329 332 332 332 332 331 331 331 332 331 331 329 327 326 326 326 328 326 327 328 328 327 326 324 323 322 322 320 319 317 316 315 314 313 311 309 307 305 304 302 301 300 299 298 297 296 296 296 298 301 306 312 315 316 319 321 322 324 325 326 325 326 328 328 326 326
306 307 309 309 311 313 314 315 317 318 320 325 329 329 330 328 328 330 329 326 331 330 329 330 330 330 331 331 331 329 328 326 324 323 324 323 324 325 325 324 324 323 324 322 322 321 320 319 317 317 316 314 312 309 308 306 304 303 301 300 300 298 298 297 296 295 295 294 296 299 306 311 314 316 318 320 321 322 323 323 324 324 326 325 323
307 308 308 310 311 313 314 316 318 318 320 326 328 327 326 327 325 324 327 327 328 328 328 326 327 328 328 330 331 331 328 325 323 322 322 320 320 320 320 320 320 322 322 320 320 319 317 317 315 314 314 312 309 307 306 304 303 302 301 300 298 297 296 295 294 294 294 294 294 294 299 304 309 313 315 317 319 320 321 321 321 321 322 323 323
307 308 308 310 312 313 314 315 317 317 319 325 325 324 322 322 322 321 322 323 322 325 325 323 324 324 325 327 326 328 327 325 323 321 320 320 319 318 316 316 316 316 316 315 314 314 314 313 313 313 312 310 307 306 304 302 301 300 300 298 297 296 294 293 293 293 292 292 292 293 294 297 302 307 311 315 316 317 318 319 320 321 321 321 322
307 307 309 311 312 313 314 315 318 319 320 324 320 320 319 318 319 320 320 320 320 321 323 322 320 322 323 324 323 322 323 323 321 320 319 316 314 313 311 311 309 310 310 310 309 310 310 310 311 311 310 307 305 304 302 300 299 298 298 296 296 294 293 292 292 292 291 291 291 291 292 292 295 300 305 310 314 315 315 316 316 318 320 321 321
307 308 309 310 311 312 313 318 320 320 321 320 319 317 317 316 318 317 318 317 317 318 319 319 319 320 320 322 321 319 319 318 317 315 313 311 309 307 305 306 306 306 306 306 307 307 309 309 309 309 308 305 303 301 301 298 297 296 295 294 293 292 292 292 291 291 290 290 290 290 291 291 291 293 297 303 307 311 312 313 313 313 315 317 318
307 309 308 310 311 312 313 314 315 316 317 316 315 315 313 313 314 314 314 316 315 314 314 315 315 315 315 316 317 317 317 316 313 312 311 307 306 304 303 303 304 304 304 305 306 307 306 307 306 305 304 302 300 298 296 294 293 293 292 292 291 290 290 290 290 290 290 289 289 290 290 290 290 290 291 295 300 305 309 310 310 310 311 312 313
308 308 309 310 310 310 312 311 312 313 313 312 312 312 311 311 312 311 311 313 313 312 311 311 311 311 312 312 313 312 311 312 311 309 307 305 303 302 302 301 301 302 301 302 303 304 305 304 303 301 300 298 297 295 294 293 291 290 290 290 289 289 289 289 289 289 288 289 289 289 289 289 289 289 290 290 293 298 302 305 307 307 308 309 311
307 308 309 309 309 309 311 310 311 310 310 310 309 309 308 308 309 307 308 310 310 309 310 310 309 309 308 309 309 309 309 309 309 308 305 303 302 300 300 299 299 299 300 301 302 302 302 301 301 300 296 294 293 292 292 291 290 289 289 289 289 289 288 288 288 288 288 288 288 288 288 288 288 288 288 288 289 292 296 299 302 304 304 306 308
307 308 308 308 308 308 309 309 308 307 307 307 306 306 307 305 306 305 305 306 306 306 305 306 306 307 306 305 305 306 307 307 306 305 303 301 300 298 298 298 298 298 298 299 300 301 300 300 299 299 296 293 292 291 290 290 289 289 288 288 288 288 288 288 288 287 288 287 287 287 287 287 287 287 287 288 288 288 291 293 295 298 299 302 304
307 308 308 308 307 308 307 306 306 306 305 304 304 303 303 302 302 302 301 302 302 302 301 302 303 305 305 303 304 304 303 304 304 304 301 299 298 297 296 296 296 296 296 298 299 300 300 298 296 296 295 293 291 290 288 288 289 288 287 287 287 287 287 287 287 288 287 286 286 286 286 286 287 287 287 287 288 288 288 289 290 291 293 297 301
307 307 307 307 307 306 305 304 303 303 302 302 301 300 300 299 299 300 300 299 299 301 300 299 299 301 301 301 303 303 301 300 300 299 297 296 295 294 294 294 295 296 297 297 298 298 298 297 295 294 294 293 291 290 288 288 288 287 287 286 287 286 287 287 286 286 286 287 286 286 286 286 286 286 286 287 287 287 287 287 286 286 287 292 296
306 307 307 306 305 304 303 303 302 301 301 301 300 300 300 299 298 298 298 298 297 297 298 297 297 298 299 299 300 300 300 299 297 297 296 295 294 293 293 294 295 298 297 297 296 296 295 294 293 292 290 290 290 289 289 288 288 287 287 287 287 287 286 286 286 285 286 286 286 286 285 285 285 286 286 286 286 286 286 286 286 285 285 287 290
306 307 306 306 304 305 304 303 301 301 300 300 300 300 300 299 300 301 298 296 295 295 295 295 295 296 297 297 297 297 297 296 295 295 294 294 293 292 293 294 296 298 298 297 297 296 296 294 293 292 290 289 289 290 290 290 287 286 288 287 286 287 287 286 285 285 285 285 285 285 285 285 285 285 285 286 286 286 285 285 285 285 284 285 285
305 306 306 306 305 304 304 303 300 300 300 301 301 302 303 305 302 296 294 294 294 294 292 292 293 294 294 295 295 296 295 294 294 294 293 293 292 292 293 293 295 295 295 295 295 295 294 293 292 290 292 290 288 290 290 292 288 286 285 285 287 289 288 286 285 284 285 285 285 285 285 285 284 285 285 285 285 285 285 285 285 284 284 284 284
305 305 306 306 304 304 304 302 300 300 301 302 302 301 299 298 298 295 294 291 292 292 291 291 292 291 292 293 293 293 293 293 293 292 291 291 292 292 292 292 293 293 293 293 294 294 294 293 293 291 288 289 288 287 289 289 289 289 289 286 284 284 286 286 287 285 284 284 285 285 285 284 284 284 285 285 284 284 284 284 284 284 283 283 283
304 304 305 305 305 304 303 301 300 300 301 300 298 295 294 294 294 293 292 291 290 291 290 290 291 291 290 291 291 291 292 291 291 291 291 291 291 291 291 292 292 294 294 292 293 293 293 294 293 292 291 288 289 288 287 286 290 290 288 291 288 287 281 282 283 284 284 283 284 283 284 284 284 284 285 284 284 284 284 284 283 283 283 282 282
304 304 304 305 304 304 303 301 301 300 300 297 294 294 292 291 290 290 291 290 290 290 290 289 289 289 289 289 288 289 290 290 290 290 290 290 290 290 290 291 291 292 294 293 292 292 293 293 293 292 293 291 287 286 286 286 289 286 292 285 285 287 286 283 284 282 285 284 283 284 284 284 284 284 284 283 284 284 283 283 283 283 282 282 282
303 304 304 305 304 304 302 301 300 300 298 295 294 293 294 292 290 291 291 291 288 290 291 290 288 290 289 287 287 287 288 288 288 288 289 289 289 289 289 289 290 290 292 292 291 290 290 291 293 294 293 294 290 286 286 285 285 286 286 287 290 290 283 284 284 280 283 283 283 283 283 283 283 284 284 283 284 284 284 283 283 282 282 282 281
303 304 304 304 304 303 302 301 300 298 296 294 294 294 293 295 296 298 297 296 294 292 291 291 290 288 287 286 286 286 287 287 287 288 288 288 288 288 288 289 289 289 289 288 288 289 290 290 288 290 291 289 290 289 287 285 285 285 285 285 285 284 289 285 283 282 280 282 284 283 283 283 283 283 283 283 283 283 283 283 282 282 281 281 281
303 303 303 303 303 302 301 301 299 296 295 294 294 294 293 294 296 296 295 295 295 292 289 288 287 287 286 285 286 286 286 287 287 287 287 287 287 287 287 287 287 287 287 288 288 287 287 287 287 288 288 289 291 288 286 285 287 284 285 284 284 285 284 286 287 286 283 280 280 281 282 282 282 282 283 283 282 283 282 282 282 282 281 281 281
303 302 302 302 302 301 300 299 297 295 294 294 294 294 295 295 296 296 294 291 290 289 288 288 286 286 285 285 285 285 285 286 286 286 286 286 286 286 286 286 286 286 286 286 286 286 286 286 285 286 287 286 288 288 286 285 286 284 283 283 284 284 283 284 283 286 285 282 280 282 281 282 282 282 282 283 282 282 282 282 282 281 281 281 280
302 303 302 302 301 300 298 297 296 295 294 293 294 294 295 295 294 294 293 288 287 286 287 286 285 285 285 285 285 285 285 285 285 285 285 286 285 286 286 286 286 285 285 285 285 285 285 286 286 286 286 286 285 287 287 285 286 285 286 286 286 284 285 285 284 282 283 285 282 281 281 282 280 282 283 283 283 282 282 282 281 281 281 280 280
301 301 301 300 299 299 297 296 296 294 293 293 294 294 294 294 293 292 289 287 286 286 285 285 285 285 284 284 284 284 284 284 284 284 284 284 284 285 285 285 285 285 284 284 284 284 284 284 284 284 285 285 285 285 285 285 285 285 285 286 285 286 285 283 283 284 283 281 280 280 280 281 281 281 283 282 283 282 282 282 281 280 280 279 279
Wind_Speed
3 5 3 5 4 5 6 7 10 11 11 11 11 11 11 12 11 10 11 13 13 13 14 14 14 14 15 15 15 16 16 16 17 17 17 17 17 18 17 17 17 17 16 16 16 16 15 15 16 16 15 16 16 17 17 18 18 18 19 19 20 20 19 19 20 19 18 20 20 20 19 19 19 19 19 20 20 19 19 19 15 13 12 15 20
3 5 3 3 4 5 5 9 11 11 11 11 10 11 11 11 12 11 11 12 12 13 14 14 14 14 14 15 15 16 16 16 17 17 17 17 17 17 17 16 16 16 16 16 16 16 16 15 15 15 15 16 16 16 16 17 18 18 19 20 19 19 20 20 19 18 18 18 17 18 19 20 19 19 19 20 20 20 19 19 19 13 12 19 19
3 4 4 4 4 3 2 7 10 11 11 11 10 9 11 10 11 11 12 13 13 13 14 14 14 14 14 15 15 15 16 16 16 16 17 17 16 16 16 16 16 16 16 16 16 17 17 17 15 15 15 15 16 16 16 17 18 18 19 19 19 19 19 19 19 18 18 17 15 13 13 18 20 19 20 21 21 22 20 20 20 17 14 21 19
6 5 4 4 3 2 1 6 9 10 10 10 9 8 10 10 11 11 12 13 13 13 14 14 14 14 14 14 15 15 16 16 16 16 16 15 15 14 15 15 15 15 16 16 17 17 17 17 17 16 16 16 16 16 17 17 18 19 19 19 19 19 19 18 18 19 19 17 16 12 11 11 15 21 22 21 22 23 21 21 21 22 22 21 22
7 6 5 5 5 3 1 7 10 11 11 10 9 9 10 11 12 12 12 13 14 13 13 13 14 14 14 14 14 15 16 16 16 15 14 14 14 14 15 15 15 15 16 17 17 18 18 18 18 17 17 16 17 17 17 17 18 19 19 19 19 17 19 18 17 18 18 16 13 12 11 12 12 20 21 22 22 21 20 22 23 22 21 22 23
6 6 6 4 4 3 4 7 11 11 11 10 10 9 9 11 12 12 13 13 14 13 13 13 13 13 14 14 14 14 15 16 16 14 14 14 14 14 15 15 16 16 16 17 17 18 19 18 18 18 18 17 17 17 17 18 18 18 19 20 19 19 19 18 17 15 13 11 12 11 12 12 12 13 22 22 22 21 22 23 23 23 22 22 21
6 5 6 5 3 3 3 8 10 11 11 10 10 9 10 10 11 11 12 13 13 13 12 12 12 13 13 14 14 14 15 15 15 14 14 14 14 15 15 15 16 16 17 17 17 19 19 19 19 18 18 17 17 17 18 18 19 20 20 19 19 19 19 18 16 14 12 10 9 11 10 13 12 10 22 21 21 22 22 23 23 23 23 22 21
4 5 6 5 4 3 3 4 9 11 11 10 9 9 9 10 10 11 12 12 12 12 12 12 12 12 13 13 14 14 15 14 14 14 14 14 14 15 16 15 16 17 17 17 18 19 20 20 20 20 19 18 17 17 18 18 20 20 18 18 19 18 17 16 15 13 12 11 10 10 10 12 13 11 20 21 22 22 22 22 22 23 23 24 19
6 7 5 4 4 4 4 1 8 10 10 9 9 9 9 10 10 12 11 12 12 12 12 12 12 13 13 13 14 14 14 14 14 14 14 14 14 15 15 16 16 17 18 18 19 19 20 20 20 20 19 19 19 19 19 20 20 19 19 19 18 17 16 15 14 11 8 9 10 11 12 13 13 12 18 21 22 22 23 19 19 22 23 21 20
7 6 5 4 4 1 3 2 7 8 9 8 8 9 9 9 11 11 12 12 12 12 12 12 12 12 13 13 14 14 13 14 14 14 13 13 14 14 16 16 17 17 18 18 19 20 20 20 20 19 19 20 20 20 20 20 20 20 20 18 17 17 16 15 12 10 8 9 9 13 12 13 13 13 18 20 21 22 20 16 16 17 17 20 22
7 6 7 3 10 9 4 4 5 6 9 7 7 9 9 9 10 10 11 12 12 12 12 12 11 11 13 13 13 13 13 13 13 13 13 13 14 15 16 16 17 17 18 18 19 20 20 20 20 20 19 19 19 20 20 20 20 19 18 18 17 17 16 14 10 7 8 9 9 8 12 14 13 12 19 21 21 21 17 18 18 19 21 20 20
7 7 6 5 8 9 2 2 4 8 7 7 8 9 9 9 8 10 11 11 12 12 12 11 11 11 12 12 13 13 13 13 13 13 13 14 14 15 16 16 16 17 18 18 18 19 20 20 20 20 20 20 19 19 19 19 18 18 18 17 17 17 16 14 8 7 8 9 8 7 10 14 14 15 21 21 21 21 20 21 20 21 21 20 20
5 8 6 5 7 7 4 3 2 5 7 8 9 9 8 9 8 9 9 9 11 12 12 11 10 11 11 12 12 12 13 13 13 13 13 14 14 15 16 16 17 17 17 18 18 19 19 20 20 20 20 20 19 19 19 18 18 18 17 17 16 16 15 13 7 8 7 8 7 7 6 12 14 19 21 21 21 19 20 21 21 20 21 20 19
3 5 5 4 6 12 11 9 4 3 5 7 9 9 8 7 8 9 9 9 9 11 11 12 11 11 11 11 12 12 12 13 13 13 13 14 14 15 15 16 17 17 17 18 18 18 18 19 20 20 20 19 19 19 19 18 18 17 17 16 16 15 12 9 8 8 8 8 7 7 6 12 13 18 20 19 19 19 18 18 19 20 21 22 20
4 4 5 2 5 7 8 6 6 3 2 5 5 7 7 6 7 9 10 9 9 10 10 11 11 11 11 11 11 12 12 12 13 13 13 13 14 15 15 16 16 17 17 18 18 18 18 19 19 19 19 19 19 19 19 19 18 18 17 16 16 15 12 7 6 7 7 7 7 8 7 12 18 19 20 21 21 21 20 19 18 18 19 20 20
6 5 5 5 5 4 5 6 3 2 4 5 6 3 3 4 4 7 8 10 9 9 10 10 10 10 10 10 10 11 11 12 12 12 13 13 14 14 15 16 16 17 17 17 17 18 18 19 19 18 18 19 19 19 19 19 18 18 18 17 16 15 12 8 6 7 7 7 6 6 11 13 20 20 19 20 20 20 22 22 20 19 20 20 20
6 5 7 5 5 4 3 3 3 3 5 6 3 2 4 4 3 4 7 8 9 9 9 10 9 10 10 10 9 9 9 12 12 12 12 13 14 14 15 15 16 17 17 18 18 18 19 19 19 18 19 19 19 19 19 19 19 18 17 17 16 15 12 10 7 7 7 8 6 7 12 11 18 20 20 20 20 21 21 22 23 23 22 22 22
5 6 7 4 4 4 4 4 3 5 4 6 8 6 3 3 5 5 6 7 7 8 8 8 8 8 8 8 8 8 9 10 11 11 12 13 12 12 14 15 16 17 17 18 18 18 18 19 19 19 19 19 19 19 19 19 19 18 18 17 16 15 12 10 7 7 8 8 8 9 11 16 19 20 20 20 20 21 21 20 21 22 23 23 22
4 6 5 4 3 4 5 3 4 2 5 4 3 6 3 2 2 5 7 8 8 8 7 7 7 9 9 9 9 9 9 9 10 9 10 10 11 11 13 14 16 17 17 18 18 19 18 19 19 19 19 20 20 19 19 19 18 18 18 16 15 12 13 10 8 7 7 7 8 11 12 16 20 20 20 21 21 20 20 21 20 22 22 22 23
3 4 5 3 3 4 3 3 3 3 2 3 4 6 5 5 0 4 6 8 8 8 9 8 9 9 10 10 10 9 8 8 10 9 10 10 10 10 11 12 15 16 17 18 18 19 19 19 19 19 19 19 19 19 19 19 18 18 17 17 14 13 10 7 9 8 7 6 8 11 13 17 19 21 22 21 21 21 21 21 22 24 23 23 22
1 3 3 2 3 3 3 2 3 3 3 1 2 3 6 7 5 4 7 8 8 9 9 9 9 8 9 8 9 7 7 6 7 6 7 7 10 11 11 11 13 15 16 17 18 18 19 19 19 19 19 19 18 18 18 18 19 18 17 15 14 10 8 9 9 8 8 7 7 11 13 16 19 20 20 20 20 21 20 20 20 21 22 23 23
0 2 3 2 2 2 2 2 1 3 3 2 1 2 4 5 6 5 5 7 7 8 7 7 7 7 8 7 7 6 6 6 6 7 6 6 7 10 12 12 12 12 15 17 17 18 19 19 19 19 18 17 14 9 10 14 17 17 15 14 11 8 9 9 9 9 9 9 11 14 20 20 19 21 22 21 21 20 20 20 20 20 20 22 22
2 1 1 2 2 1 2 3 2 3 3 2 1 2 4 5 5 4 4 6 7 6 4 6 5 7 5 7 6 5 5 5 5 6 6 7 8 10 11 12 11 12 14 15 16 18 19 19 18 17 17 15 9 7 8 7 9 14 14 11 9 9 9 10 10 9 10 10 11 18 19 21 21 21 21 22 22 21 21 21 21 21 21 20 20
2 1 1 1 0 1 1 2 2 2 1 1 1 1 3 5 5 4 4 4 5 6 6 5 6 6 6 6 5 6 6 4 6 7 7 6 6 9 11 11 13 13 14 10 13 15 16 17 16 15 11 8 7 7 7 7 8 7 8 9 9 9 10 9 9 9 10 12 12 21 20 19 22 22 21 21 21 21 20 21 21 21 21 21 21
1 2 1 1 1 1 1 1 2 1 1 0 1 2 3 4 5 5 5 7 6 6 5 5 5 7 5 6 5 5 5 5 5 4 4 4 4 6 6 6 7 7 10 7 6 7 8 7 7 7 8 8 8 7 7 8 8 8 9 8 9 9 9 9 9 9 9 11 14 21 20 20 21 22 22 22 21 21 21 20 20 22 22 22 23
2 2 1 2 4 5 3 1 2 1 1 1 1 2 3 5 6 6 5 6 7 7 5 5 5 5 5 6 6 6 5 5 5 4 4 4 4 4 6 6 7 6 6 6 5 5 6 7 7 7 7 7 8 7 7 8 9 9 9 8 8 9 8 8 8 9 9 9 13 21 21 20 20 21 22 22 21 21 21 22 23 22 22 23 24
2 3 1 2 2 3 3 2 1 2 3 2 1 2 3 2 4 4 5 5 6 7 6 5 5 6 6 6 6 5 5 5 5 5 5 5 3 4 6 5 7 7 6 6 6 5 6 7 7 7 7 7 9 9 9 9 9 10 9 8 8 9 8 8 8 9 8 9 12 22 22 23 22 21 21 22 23 23 23 22 23 25 24 24 26
1 3 1 1 1 2 2 2 2 2 3 3 2 3 3 3 2 5 4 4 5 6 7 7 5 5 6 6 6 7 6 6 6 6 5 5 5 2 5 6 7 7 6 6 7 5 6 6 8 7 8 7 9 10 9 9 9 9 10 9 9 9 8 8 9 9 9 9 10 18 21 22 23 22 22 23 23 23 23 22 22 25 27 27 27
5 3 2 1 2 2 1 2 2 4 3 3 3 2 3 3 2 4 5 5 5 4 5 5 7 5 5 6 7 7 6 7 7 6 5 5 5 3 6 5 6 7 6 6 6 7 6 6 8 7 7 7 8 10 9 9 8 9 10 10 10 9 9 9 9 9 9 9 9 14 22 22 23 23 23 23 24 24 23 23 23 23 24 25 25
5 3 2 2 2 2 2 4 4 5 5 4 4 2 2 4 3 1 6 5 5 5 7 4 4 6 6 8 7 7 7 7 7 6 7 6 6 5 6 6 5 6 6 8 5 7 8 7 7 8 8 7 8 9 10 10 10 9 9 10 9 9 8 8 9 8 8 8 8 10 21 22 23 23 24 24 24 24 24 23 23 23 23 24 24
3 4 3 2 2 2 4 6 7 6 5 6 4 3 3 3 5 2 4 5 5 6 6 5 4 4 4 6 6 5 6 7 7 8 6 7 7 5 5 5 6 5 5 7 6 6 6 7 6 7 7 8 8 8 9 10 10 10 9 10 9 8 8 8 8 8 9 8 7 8 11 21 22 23 23 24 24 24 25 24 24 24 24 24 24
5 5 3 3 2 3 5 6 6 7 7 6 4 4 4 3 5 3 4 5 5 4 6 5 3 5 6 7 6 4 5 6 8 7 7 5 5 5 5 6 6 5 5 7 6 6 8 7 8 8 9 8 8 9 9 10 10 9 9 10 8 8 8 7 8 8 8 8 7 8 8 9 18 21 22 23 24 24 24 25 24 24 23 23 23
3 4 3 2 3 2 2 4 5 6 7 7 6 4 5 3 5 3 5 6 5 1 5 4 4 5 6 6 8 5 5 6 7 7 7 7 6 7 6 6 5 6 5 8 9 7 8 9 8 8 9 8 9 10 9 9 10 9 9 9 8 9 7 7 8 8 8 8 7 7 7 8 8 15 20 22 23 23 24 24 24 24 24 24 23
4 3 3 3 1 1 1 2 2 4 5 5 3 6 4 3 4 3 4 5 5 4 3 4 5 5 5 6 8 6 6 5 9 6 4 6 5 6 7 6 6 7 6 6 7 7 8 9 7 8 7 8 9 9 9 10 8 8 8 8 8 7 6 8 7 7 7 8 7 8 7 7 8 8 8 18 21 22 23 24 24 24 24 24 23
4 3 5 3 2 1 2 3 4 4 5 6 3 5 4 4 4 5 4 5 5 4 3 3 6 3 4 5 5 6 5 6 5 8 6 6 6 6 6 5 5 6 6 4 7 6 6 7 7 9 7 9 9 7 9 9 9 8 7 7 7 7 7 8 7 7 8 7 7 7 7 7 7 7 7 7 12 21 22 23 23 24 24 23 23
8 6 4 3 3 2 3 4 4 5 5 5 4 4 5 3 6 5 3 5 6 5 4 2 4 4 4 5 5 6 6 5 5 6 7 6 6 6 5 5 5 6 7 7 6 7 7 7 4 8 11 9 10 8 7 10 9 9 7 7 7 6 7 7 7 8 6 6 7 7 7 7 8 7 7 7 7 12 21 21 22 23 24 24 24
7 8 6 5 4 3 4 6 6 5 6 6 4 5 5 5 6 5 4 5 6 5 3 2 4 4 5 5 5 5 5 7 5 6 8 7 6 6 5 6 5 6 6 6 6 6 8 7 7 5 12 10 11 11 9 9 9 8 7 8 7 7 7 6 7 6 5 8 8 8 8 8 8 8 7 6 6 6 14 20 20 22 23 23 23
7 6 6 6 6 5 4 5 4 5 5 5 4 5 5 5 5 5 3 5 6 4 2 3 3 4 5 5 7 6 3 6 6 6 7 6 6 6 6 6 5 5 7 6 7 6 7 10 10 7 8 11 10 10 10 9 8 8 8 8 7 7 7 6 6 5 7 8 8 8 7 6 7 7 7 7 7 7 7 12 17 18 22 22 22
8 7 6 6 5 5 5 5 5 6 6 5 6 6 5 7 5 6 5 5 5 5 4 3 2 3 5 7 5 7 5 6 5 5 8 7 7 6 6 5 5 7 8 8 8 8 8 8 12 9 6 7 10 9 10 9 9 8 8 8 7 8 6 6 6 6 7 7 7 6 6 7 7 7 6 7 6 7 8 7 8 8 11 21 21
8 7 8 7 6 6 5 6 5 5 7 6 5 6 4 5 6 5 6 4 4 4 4 3 2 3 4 8 5 7 6 5 4 4 7 7 7 6 6 5 6 7 9 10 8 9 12 12 11 13 12 9 8 9 9 11 10 10 9 8 7 7 8 6 7 7 6 6 5 5 6 5 6 6 6 6 6 7 7 7 7 7 7 12 20
11 11 9 9 9 9 10 10 6 6 6 7 5 6 7 6 4 5 6 3 4 4 4 2 3 3 4 7 5 5 6 5 4 5 7 8 6 6 7 5 5 7 8 9 9 10 9 11 11 8 14 13 8 6 6 7 12 9 7 7 7 7 7 7 8 6 6 5 4 5 5 6 5 6 5 5 6 7 6 7 6 7 8 7 9
12 11 11 10 9 10 10 9 7 6 6 8 7 6 4 6 8 5 6 4 6 4 4 3 2 4 5 5 5 7 4 5 5 5 6 6 8 6 6 7 6 6 7 8 9 10 11 10 11 10 3 10 8 5 5 2 5 8 9 6 6 4 4 6 7 7 5 5 4 5 5 6 6 5 4 5 6 6 6 6 6 7 7 7 7
12 12 11 11 11 10 9 10 8 7 7 7 5 6 2 4 4 6 5 5 4 3 3 3 2 5 5 3 6 8 5 5 5 6 6 5 7 7 7 6 7 9 10 9 10 10 9 12 10 12 9 3 4 0 1 3 5 4 6 8 5 4 2 4 4 6 5 4 4 5 5 5 6 5 4 5 5 5 5 6 6 7 7 7 6
11 12 13 14 10 10 10 10 8 8 8 6 5 5 6 8 8 7 6 4 5 4 5 5 4 5 6 3 5 6 5 5 6 6 5 5 7 8 7 7 7 6 10 11 10 10 9 9 8 9 11 10 4 3 2 2 4 10 5 0 3 3 5 2 3 3 2 4 5 5 4 4 5 4 4 5 5 4 4 5 6 6 6 6 6
14 15 15 13 8 13 10 10 9 8 6 7 7 7 9 8 8 9 8 8 7 5 5 4 2 1 5 4 4 5 5 5 6 5 5 7 6 7 7 7 7 6 7 10 10 10 9 8 10 10 10 12 7 3 1 0 2 4 4 5 3 3 2 5 5 4 1 2 4 3 4 4 4 4 4 4 3 4 3 4 5 5 6 6 7
16 14 12 12 12 13 11 11 8 9 7 8 9 8 10 10 9 8 8 6 6 6 8 9 6 6 5 4 4 4 4 5 4 5 5 6 7 7 8 8 7 6 7 8 9 8 8 10 10 10 9 7 10 5 4 2 3 2 2 2 1 2 7 5 2 4 2 2 1 3 4 4 3 3 3 3 3 3 3 4 4 5 6 6 6
13 10 10 11 13 13 13 11 9 7 7 9 9 7 7 10 13 13 13 13 12 6 3 4 5 3 3 6 4 4 3 5 4 4 5 5 6 6 7 7 7 6 6 7 8 9 8 9 6 5 7 7 8 8 8 5 4 4 3 3 4 3 7 9 3 6 5 2 1 2 3 3 3 3 3 3 2 2 3 3 4 5 5 5 6
11 10 10 10 14 14 14 12 9 8 7 8 9 7 8 9 9 8 8 9 10 12 10 6 4 5 4 5 5 4 3 3 4 5 4 5 6 6 6 6 7 6 6 7 8 6 5 3 3 5 6 6 7 10 8 7 7 3 1 3 6 5 5 5 5 4 5 8 5 1 0 1 1 2 2 2 2 2 3 3 3 4 4 6 6
11 13 12 12 11 11 11 10 10 9 7 10 10 8 8 8 8 9 9 3 5 6 5 5 6 5 6 5 5 4 3 3 3 4 4 5 4 6 6 6 7 6 5 5 5 6 7 8 7 6 7 4 3 7 9 6 7 7 6 3 5 5 4 4 3 3 4 5 4 3 3 1 1 0 1 1 1 2 2 3 3 4 4 5 6
11 11 11 10 10 10 12 12 12 8 8 9 8 9 8 7 6 8 11 8 6 5 5 6 6 5 7 6 5 4 3 4 3 3 4 4 5 5 5 6 6 6 5 6 7 6 6 6 7 6 6 7 3 6 8 6 5 6 3 6 5 3 4 3 4 4 4 3 5 5 4 4 3 2 0 1 1 2 3 3 3 4 4 4 5
10 12 12 11 11 12 12 13 13 8 9 9 9 9 8 6 8 9 11 10 11 13 9 6 5 6 6 6 5 5 3 4 3 3 3 4 4 3 4 5 4 5 6 6 6 6 5 5 5 5 5 6 4 6 7 5 4 4 5 5 6 6 5 4 5 2 3 3 4 3 2 3 2 3 3 1 1 1 2 3 3 3 3 4 3
Wind_Direction
210 212 218 235 204 164 142 140 124 114 110 111 113 115 112 107 111 102 101 100 98 99 100 99 97 95 92 89 86 84 82 77 73 68 63 59 56 54 52 52 52 54 55 56 57 60 65 71 72 70 70 72 74 75 76 75 72 70 69 68 67 66 63 61 61 56 53 55 56 57 56 55 54 55 54 53 51 48 45 43 41 47 45 43 40
173 199 214 231 225 162 154 139 123 117 114 113 113 116 113 112 111 104 103 103 100 98 96 94 92 94 94 91 89 87 84 80 75 70 64 61 57 54 52 51 52 54 56 58 59 60 63 68 72 72 74 74 75 77 77 76 73 70 70 70 69 66 64 63 60 53 51 53 52 51 52 53 53 54 54 53 52 50 47 45 43 45 46 45 44
221 177 188 210 219 176 122 127 121 119 114 112 111 112 108 111 108 105 107 103 103 103 98 93 92 92 92 92 91 89 86 82 77 71 66 63 60 57 54 52 52 55 58 60 61 62 63 66 71 74 74 74 76 77 78 77 74 71 71 68 67 66 66 63 56 51 52 50 46 42 43 51 51 53 53 52 52 52 49 48 47 46 47 46 45
168 180 186 199 179 129 80 137 121 116 114 112 115 117 111 112 114 112 109 106 102 97 94 93 93 91 91 91 90 90 88 85 80 74 69 65 62 59 57 54 54 56 60 62 63 63 65 67 70 76 77 76 78 78 79 77 76 75 70 68 67 66 61 55 53 54 55 53 50 40 44 48 51 51 53 52 52 52 51 51 50 48 46 47 46
163 169 183 170 156 135 146 138 130 125 124 122 126 127 122 119 121 118 111 105 100 97 97 96 95 94 93 92 93 92 89 87 85 79 74 69 64 59 55 54 56 58 61 64 65 65 67 70 73 76 77 77 77 80 80 80 79 77 77 75 70 67 66 60 56 58 57 51 43 48 48 50 53 50 52 52 51 51 52 51 50 49 44 43 45
167 164 169 155 150 142 137 147 134 131 130 132 130 133 126 116 119 117 111 107 105 106 104 102 99 97 96 95 94 92 90 88 87 83 76 71 64 59 55 53 56 59 62 65 67 67 69 72 74 75 77 79 82 83 81 80 80 79 74 71 70 68 62 61 60 58 57 48 51 56 52 52 54 51 52 53 51 50 49 50 48 48 47 44 44
171 166 163 157 142 138 127 148 138 137 135 135 136 133 124 123 119 116 113 108 108 109 110 108 101 100 99 98 96 94 92 91 89 83 76 71 65 59 56 56 58 61 64 67 69 69 69 71 73 76 78 78 78 77 76 75 73 70 68 68 70 64 57 55 54 54 52 54 56 55 54 53 55 56 52 54 54 52 51 53 51 48 49 48 46
177 167 164 157 152 146 152 146 145 142 141 141 137 130 125 122 117 114 112 108 109 111 113 110 104 103 102 101 97 95 94 94 89 82 76 70 64 59 56 56 60 63 66 69 71 71 71 72 73 75 77 79 78 78 77 76 75 73 72 69 65 61 59 56 51 46 43 58 55 53 53 55 60 60 54 55 54 52 52 52 53 51 50 51 49
172 160 157 163 156 146 165 160 150 146 145 143 135 126 125 126 125 123 116 112 111 113 114 115 113 110 107 104 101 99 99 96 90 84 77 71 66 64 61 59 61 64 67 70 71 72 72 73 73 76 75 73 74 75 76 77 77 79 79 73 67 62 60 56 50 39 48 51 48 56 56 59 62 61 58 56 56 52 52 51 53 53 51 49 50
166 152 140 157 116 21 265 138 156 153 149 145 136 127 131 132 131 127 122 116 119 117 117 119 121 117 111 108 106 104 102 98 93 88 81 75 70 68 66 65 65 66 70 72 73 73 73 73 74 76 76 72 70 70 71 71 71 68 66 66 64 61 56 52 47 43 46 46 45 58 56 53 62 60 59 59 59 55 53 50 53 53 55 52 50
162 168 145 147 132 197 198 175 158 161 153 148 147 135 133 141 137 135 126 128 125 121 120 120 121 119 116 111 108 107 105 101 97 91 84 78 73 71 69 69 69 70 72 74 74 75 75 75 75 77 76 74 70 69 67 65 67 67 66 64 60 56 52 47 40 44 41 41 43 47 58 56 61 60 59 59 60 58 56 54 51 53 50 51 49
156 167 164 142 149 145 178 249 154 162 157 151 154 145 142 140 143 137 132 134 130 125 121 119 118 117 116 113 111 110 110 106 101 94 86 80 77 74 72 71 71 73 75 76 76 75 75 76 78 77 77 74 73 69 68 69 68 67 65 62 60 58 52 46 44 41 36 35 37 32 49 58 56 60 60 59 59 57 55 56 52 51 49 48 50
172 166 150 135 136 172 159 257 241 158 155 165 162 156 151 149 146 140 138 137 133 128 124 121 118 117 118 117 114 114 114 112 105 98 90 85 81 77 74 73 74 75 76 76 76 77 77 77 77 77 77 77 72 69 68 67 66 66 66 65 63 61 58 48 47 43 37 31 33 31 39 63 60 61 60 58 60 58 55 53 54 52 51 49 46
189 139 148 149 145 170 178 194 212 232 169 168 164 160 161 152 149 145 143 139 137 133 130 126 124 122 122 123 120 121 120 116 110 103 95 88 84 81 77 76 77 78 78 77 76 76 76 78 79 79 77 75 72 70 69 68 67 65 64 63 62 60 55 52 46 43 38 31 32 25 25 62 61 59 61 58 57 52 49 54 54 50 49 52 49
101 63 134 82 126 142 159 184 215 206 204 157 152 158 166 162 152 147 148 146 143 139 132 129 127 124 123 123 124 123 121 117 113 106 98 92 88 85 81 81 82 82 82 81 80 79 79 79 80 80 78 76 75 74 72 69 67 65 63 61 60 57 49 55 42 41 38 33 30 31 31 59 56 53 51 54 53 52 52 51 51 50 48 48 47
78 70 75 61 53 91 134 144 97 322 109 89 57 38 182 164 155 148 147 149 148 146 137 132 127 128 126 125 123 122 121 119 113 109 101 97 92 87 84 83 84 84 84 83 83 83 83 82 82 82 80 79 79 78 75 71 68 66 65 64 62 59 50 50 51 40 39 35 33 35 55 54 52 53 52 51 53 54 51 49 53 55 50 47 46
63 67 66 47 40 50 73 141 132 315 128 105 75 306 324 157 146 137 137 149 150 146 145 137 135 133 132 128 124 121 121 120 118 113 107 101 98 93 88 86 86 85 83 82 80 81 83 84 83 82 82 82 81 79 75 71 68 67 65 63 61 58 50 50 50 42 41 35 34 43 56 53 50 53 52 52 54 54 51 51 54 55 52 51 49
59 62 62 44 36 49 50 36 121 217 175 140 172 212 266 147 127 131 133 143 144 143 146 140 139 132 121 116 117 120 120 122 125 121 115 106 100 100 95 92 89 86 84 82 80 81 83 84 83 82 81 80 79 77 74 71 68 65 62 60 58 55 50 49 48 42 38 34 40 49 59 55 54 54 55 53 53 52 51 49 48 51 49 48 48
66 81 76 49 40 60 42 35 30 63 133 164 161 188 160 33 111 115 122 138 143 142 131 135 124 122 115 106 96 90 95 110 123 118 110 108 102 101 102 99 95 92 89 85 84 84 84 84 84 83 81 80 78 75 72 69 67 64 61 58 53 49 47 49 42 38 33 40 44 57 59 60 60 59 57 55 53 51 50 49 47 46 44 42 42
66 71 72 59 42 61 62 44 31 15 61 122 178 166 172 154 34 109 120 122 132 123 116 117 119 121 116 110 107 104 97 101 112 118 119 107 107 108 107 105 103 99 95 92 90 90 88 86 86 84 80 76 74 72 71 68 65 63 61 58 53 50 48 42 38 33 30 36 48 62 59 59 60 60 59 58 58 56 53 51 49 47 46 45 43
40 57 65 51 46 43 43 57 40 355 32 12 129 155 169 160 163 127 102 101 110 117 120 116 114 115 115 112 114 119 118 118 118 120 113 109 116 115 112 108 104 102 100 97 96 95 94 92 89 86 81 76 71 68 67 68 66 62 59 56 55 54 44 42 39 38 33 17 40 54 56 59 60 59 59 58 58 57 56 56 53 51 49 48 48
354 73 57 35 35 57 22 79 66 18 31 349 74 147 175 174 155 156 142 119 117 122 132 135 130 128 126 128 125 129 128 128 129 132 129 121 113 117 116 114 109 106 104 103 102 101 100 98 94 89 85 80 74 73 69 66 65 64 58 56 56 49 43 43 41 40 31 32 47 46 48 56 59 60 58 56 56 55 55 52 52 52 52 51 50
170 44 73 19 7 51 17 37 33 19 7 19 332 94 181 165 165 161 145 135 125 117 129 129 135 136 147 135 135 135 127 126 136 137 138 135 129 121 116 115 108 101 101 106 105 103 103 101 98 94 90 85 78 75 73 70 69 64 61 54 53 49 45 42 44 39 38 31 41 39 50 56 54 53 56 55 55 51 54 55 52 52 52 50 49
181 160 262 293 74 30 19 62 34 19 351 358 317 290 184 177 168 168 152 149 139 141 145 135 136 141 143 135 134 136 134 127 112 111 118 136 136 113 99 98 97 91 93 96 98 97 97 93 94 98 93 88 86 83 79 73 71 64 58 57 54 47 46 44 43 40 39 33 34 33 41 50 51 51 52 53 52 52 51 55 55 54 52 50 49
229 296 244 251 182 152 136 28 28 10 306 339 6 277 197 184 189 169 165 153 148 143 139 143 142 140 142 135 135 126 125 134 134 126 124 136 139 130 115 115 114 104 104 99 102 101 97 94 91 84 91 92 89 84 87 82 74 67 60 59 58 52 50 47 46 44 38 35 31 32 34 49 49 51 51 51 50 49 52 54 55 54 51 50 49
264 234 261 328 342 346 18 40 349 309 282 313 241 262 235 184 190 171 165 148 150 143 141 144 142 141 145 132 131 123 121 124 120 123 124 113 104 136 126 124 119 111 107 105 100 95 98 100 90 85 84 88 87 84 75 81 81 74 67 60 60 58 55 52 49 47 43 38 31 32 35 41 52 51 49 49 48 45 46 51 52 52 55 57 55
209 245 333 306 309 330 327 13 325 304 275 252 253 243 218 200 170 153 158 154 152 142 142 142 144 145 145 139 136 122 124 117 115 117 118 120 118 134 126 122 123 119 112 109 98 98 103 101 96 90 89 90 91 86 81 77 80 85 78 66 64 63 59 56 55 52 44 40 31 30 41 44 48 53 52 51 48 46 44 47 51 53 53 53 51
206 231 247 252 272 276 283 332 308 301 272 241 219 221 183 138 153 130 129 125 139 140 142 141 137 139 142 147 138 139 131 122 118 118 119 121 119 119 116 113 114 111 111 109 110 102 98 98 100 95 97 91 94 91 84 81 81 84 81 71 65 62 58 58 58 52 48 42 36 30 38 45 47 51 54 52 50 48 47 50 50 47 48 47 47
212 219 234 265 255 244 237 280 287 285 268 254 241 200 145 129 130 153 138 133 137 133 122 139 143 140 140 142 141 133 129 128 121 124 119 113 118 100 101 96 109 116 113 105 108 112 101 98 98 97 91 95 96 92 88 83 79 77 80 74 67 62 57 57 56 51 49 48 39 31 35 38 46 50 53 53 52 50 48 47 49 48 48 48 47
203 198 215 235 270 276 255 262 261 255 256 236 205 175 126 139 108 191 139 128 130 144 131 125 128 143 148 151 149 141 139 131 125 125 121 116 106 100 91 92 82 107 111 112 103 109 108 97 96 99 104 96 91 93 93 85 78 75 76 77 68 62 59 57 54 54 53 47 42 37 34 38 40 44 48 52 52 52 51 49 49 49 49 48 46
187 206 213 218 248 283 263 257 251 240 243 221 166 149 119 128 128 132 125 122 118 140 126 110 126 114 125 122 112 140 135 130 129 131 118 121 116 106 98 101 98 93 99 99 91 82 84 92 97 100 102 103 93 92 93 90 83 77 74 74 71 67 63 58 57 56 53 46 45 41 34 36 39 41 44 48 50 50 48 49 49 48 49 48 44
190 201 209 196 233 247 253 245 233 224 226 192 131 130 107 135 128 150 115 96 101 145 131 127 131 118 122 113 101 97 133 130 130 133 130 120 110 105 102 100 97 91 95 103 92 90 94 89 91 96 96 93 97 91 86 88 83 76 74 73 69 68 64 61 62 58 57 51 47 43 42 36 38 41 42 45 48 49 49 49 48 48 47 47 45
201 186 200 189 219 251 266 211 207 209 198 157 155 107 116 137 128 134 117 106 86 56 126 126 120 127 119 124 121 118 101 124 111 120 121 115 110 108 95 97 100 104 93 97 102 106 103 99 96 100 93 94 89 88 83 79 82 79 76 73 73 67 64 66 65 60 57 54 50 48 48 42 39 38 38 42 45 47 49 49 48 48 46 46 45
185 191 190 201 185 237 221 110 113 135 146 122 139 129 120 126 109 107 90 94 99 88 76 107 116 112 103 106 122 128 118 122 119 110 107 103 92 99 108 102 108 109 103 108 107 114 110 109 112 99 96 97 89 90 90 84 80 79 74 72 73 70 68 68 63 61 60 58 52 49 46 43 41 40 31 36 40 44 47 47 48 47 47 45 43
171 189 201 203 166 182 179 105 119 107 104 103 98 112 133 127 103 73 75 91 95 97 92 90 109 99 107 97 95 101 95 117 122 126 117 111 107 102 97 107 107 106 98 66 105 106 101 108 120 99 89 80 83 73 85 88 86 79 75 75 76 75 71 71 66 63 62 62 59 54 51 49 47 43 36 38 32 40 44 46 46 45 45 44 43
188 192 196 171 162 157 147 121 116 105 95 97 101 104 97 109 98 86 96 96 94 93 77 104 107 111 96 98 89 94 89 90 116 120 114 107 109 107 107 105 101 105 109 114 119 113 101 95 63 114 104 92 96 82 83 89 84 81 75 77 76 72 75 71 68 67 63 67 62 58 53 50 47 47 43 43 43 38 43 44 45 44 42 42 42
179 191 188 169 153 139 137 136 134 118 115 104 99 103 87 83 91 99 101 96 92 84 90 92 100 106 103 94 94 100 104 101 85 108 111 111 107 106 106 106 107 112 107 109 101 102 111 100 93 66 108 115 105 105 90 92 90 86 82 76 69 72 70 69 70 75 66 64 60 57 56 53 52 49 48 46 46 44 42 44 44 43 40 41 41
181 181 177 170 157 153 140 125 118 115 112 113 116 101 105 91 92 94 85 85 82 79 80 90 98 119 110 95 86 72 82 113 124 121 100 105 101 104 112 116 117 109 107 106 102 103 103 110 103 90 106 117 116 111 104 98 95 90 79 73 71 70 70 69 72 65 67 68 61 59 60 59 55 50 48 49 46 46 43 43 43 40 38 37 38
182 181 172 164 148 144 131 133 129 121 112 109 108 89 107 88 77 86 74 79 81 65 58 78 99 123 116 104 105 102 84 77 98 120 115 120 112 109 116 119 130 125 118 112 111 110 105 103 113 104 70 85 113 109 114 109 96 88 80 74 74 71 73 70 68 66 63 65 73 72 65 59 60 51 52 50 50 49 45 42 37 37 34 35 35
178 172 173 159 149 147 135 145 141 136 125 121 124 116 106 107 111 95 85 70 78 83 65 74 99 92 104 104 117 115 111 106 104 104 109 121 119 127 119 131 146 134 122 121 127 129 126 115 111 115 110 93 88 111 120 110 94 85 85 78 71 75 68 67 67 65 66 64 70 69 69 65 63 59 54 55 56 52 51 48 45 42 39 35 35
186 185 179 176 165 165 163 166 159 153 147 144 152 146 136 108 71 126 136 117 102 102 91 72 77 86 82 103 113 97 107 112 109 118 117 120 113 123 124 128 144 128 124 125 128 124 123 121 119 115 123 118 109 121 122 126 113 86 81 80 75 64 73 69 67 64 62 64 68 74 72 73 66 62 54 59 56 54 55 50 48 46 39 35 29
191 185 189 183 172 168 172 167 161 166 166 163 153 160 157 163 155 149 138 126 125 125 125 115 104 100 73 97 117 100 108 113 117 118 111 126 127 129 129 136 136 119 110 118 124 125 128 125 129 109 58 120 128 168 169 152 88 132 131 110 89 90 87 71 67 58 62 63 66 71 69 71 68 66 65 64 59 55 52 52 51 47 44 41 34
184 187 188 181 177 177 177 171 166 166 165 166 163 148 118 72 111 130 129 105 42 69 70 82 65 88 82 83 94 95 114 115 114 111 122 125 125 131 134 136 137 134 127 130 133 135 141 141 150 134 128 37 97 22 224 296 129 124 107 114 143 121 123 95 82 58 51 55 57 64 66 73 67 63 63 65 62 57 53 52 54 51 46 41 37
185 188 189 190 184 183 177 173 167 168 169 160 111 82 85 83 72 79 68 57 122 107 93 87 77 92 91 76 60 88 102 114 99 112 120 131 138 135 135 142 144 156 137 138 144 141 148 146 143 136 129 137 159 148 347 255 182 145 158 216 151 132 124 130 116 91 73 54 52 66 62 68 69 65 60 63 62 65 63 61 58 56 47 42 38
192 192 191 190 181 186 176 168 168 170 162 141 129 125 114 96 94 84 85 91 78 87 90 70 55 74 108 79 64 70 92 101 98 109 131 136 133 136 138 140 141 147 143 138 148 153 155 153 152 149 162 147 153 139 98 31 241 340 145 134 107 198 186 136 152 102 94 85 48 55 67 61 69 66 67 70 73 69 74 68 66 58 48 44 37
194 191 184 185 181 181 174 173 164 170 153 140 143 147 145 139 136 131 135 134 130 151 160 161 170 170 140 127 80 69 89 100 109 121 129 136 136 136 138 140 140 142 152 140 133 135 157 161 173 158 147 177 138 134 124 41 35 49 351 352 308 186 146 171 170 134 100 49 27 54 51 49 52 66 68 72 68 77 71 75 64 58 47 40 36
195 175 176 179 181 181 178 173 170 159 150 151 152 152 147 162 164 163 163 165 162 185 146 148 137 110 117 113 102 82 81 116 119 128 132 134 130 133 140 137 134 135 138 138 150 158 156 158 150 165 154 135 147 132 149 146 129 57 34 51 60 35 108 139 174 116 144 145 154 69 62 34 28 50 67 65 64 84 76 74 68 61 50 43 36
175 170 175 174 182 182 179 175 166 161 157 159 163 168 160 168 169 162 164 168 170 165 166 142 123 125 123 104 109 101 97 100 121 123 131 134 135 125 133 135 136 141 148 155 147 142 131 113 137 126 137 155 160 143 148 168 154 140 78 79 71 67 59 47 74 157 137 151 158 165 252 352 18 59 51 73 97 93 103 91 79 65 58 45 39
175 177 180 179 175 172 169 164 164 164 161 169 169 170 175 175 166 164 160 113 94 133 128 125 129 131 113 107 106 111 108 94 98 120 125 131 135 135 138 138 139 142 145 130 129 138 143 140 140 146 152 143 165 146 143 166 153 150 144 92 82 78 72 62 85 76 130 144 141 169 166 157 267 137 51 123 97 105 106 98 81 71 62 50 41
178 175 174 172 173 167 169 168 174 167 163 170 173 169 170 170 160 169 156 137 123 113 135 136 141 135 123 129 124 132 130 121 114 101 118 120 125 129 135 136 134 136 139 130 123 120 121 119 123 131 133 122 136 156 143 143 135 139 145 145 124 109 70 66 52 84 57 49 161 171 179 174 176 169 272 68 82 123 114 100 91 70 56 51 38
175 172 174 176 173 171 170 175 176 163 166 169 172 171 167 170 170 164 152 143 150 151 140 134 132 127 138 143 146 138 137 135 134 118 108 119 116 114 124 123 128 131 122 120 122 119 112 109 111 112 114 122 131 115 98 88 109 113 121 127 138 147 154 160 170 161 134 135 116 130 147 211 186 177 198 297 302 113 99 88 77 71 66 49 40